| time (UTC) | temp F | wind direction | speed knots | gust knots | rain 1hr in | rain 24hr in | rain mn in | humidity % | barometer mb |
| 20260507230036 | 57 | 11 | 0.9 | 6.1 | 0.00 | 0.00 | 0.00 | 86 | 1013.0 |
| 20260507225533 | 57 | 306 | 3.5 | 4.3 | 0.00 | 0.00 | 0.00 | 86 | 1013.0 |
| 20260507225036 | 57 | 311 | 3.5 | 4.3 | 0.00 | 0.00 | 0.00 | 85 | 1013.1 |
| 20260507224533 | 57 | 17 | 1.7 | 4.3 | 0.00 | 0.00 | 0.00 | 85 | 1013.1 |
| 20260507224030 | 57 | 336 | 2.6 | 4.3 | 0.00 | 0.00 | 0.00 | 86 | 1013.1 |
| 20260507223530 | 57 | 65 | 0.0 | 3.5 | 0.00 | 0.00 | 0.00 | 86 | 1013.1 |
| 20260507223030 | 57 | 331 | 0.9 | 4.3 | 0.00 | 0.00 | 0.00 | 86 | 1013.1 |
| 20260507222536 | 57 | 330 | 1.7 | 5.2 | 0.00 | 0.00 | 0.00 | 86 | 1013.0 |
| 20260507222033 | 57 | 327 | 2.6 | 5.2 | 0.00 | 0.00 | 0.00 | 86 | 1013.0 |
| 20260507221530 | 57 | 315 | 4.3 | 4.3 | 0.00 | 0.00 | 0.00 | 86 | 1013.0 |
| 20260507221030 | 58 | 308 | 1.7 | 5.2 | 0.00 | 0.00 | 0.00 | 86 | 1013.0 |
| 20260507220530 | 58 | 323 | 2.6 | 3.5 | 0.00 | 0.00 | 0.00 | 86 | 1013.0 |
| 20260507220030 | 58 | 336 | 1.7 | 2.6 | 0.00 | 0.00 | 0.00 | 86 | 1013.0 |
| 20260507215536 | 58 | 324 | 3.5 | 4.3 | 0.00 | 0.00 | 0.00 | 86 | 1013.0 |
| 20260507215030 | 58 | 321 | 3.5 | 4.3 | 0.00 | 0.00 | 0.00 | 86 | 1012.8 |
| 20260507214530 | 58 | 314 | 1.7 | 3.5 | 0.00 | 0.00 | 0.00 | 87 | 1012.8 |
| 20260507214030 | 58 | 341 | 0.9 | 4.3 | 0.00 | 0.00 | 0.00 | 87 | 1012.8 |
| 20260507213530 | 58 | 309 | 0.0 | 3.5 | 0.00 | 0.00 | 0.00 | 86 | 1012.8 |
| 20260507213036 | 58 | 31 | 1.7 | 3.5 | 0.00 | 0.00 | 0.00 | 86 | 1012.7 |
| 20260507212530 | 59 | 313 | 2.6 | 3.5 | 0.00 | 0.00 | 0.00 | 86 | 1012.7 |
| 20260507212030 | 59 | 317 | 1.7 | 2.6 | 0.00 | 0.00 | 0.00 | 86 | 1012.7 |
| 20260507211539 | 59 | 312 | 1.7 | 2.6 | 0.00 | 0.00 | 0.00 | 87 | 1012.7 |
| 20260507211036 | 59 | 21 | 0.0 | 4.3 | 0.00 | 0.00 | 0.00 | 87 | 1012.8 |
| 20260507210533 | 59 | 316 | 1.7 | 3.5 | 0.00 | 0.00 | 0.00 | 87 | 1012.8 |
| 20260507210033 | 59 | 309 | 0.9 | 2.6 | 0.00 | 0.00 | 0.00 | 87 | 1012.8 |
| 20260507205539 | 59 | 301 | 0.0 | 3.5 | 0.00 | 0.00 | 0.00 | 87 | 1012.8 |
| 20260507205030 | 59 | 17 | 1.7 | 4.3 | 0.00 | 0.00 | 0.00 | 87 | 1012.8 |
| 20260507204530 | 59 | 323 | 3.5 | 4.3 | 0.00 | 0.00 | 0.00 | 86 | 1012.7 |
| 20260507204030 | 60 | 328 | 2.6 | 3.5 | 0.00 | 0.00 | 0.00 | 86 | 1012.8 |
| 20260507203536 | 60 | 345 | 0.9 | 2.6 | 0.00 | 0.00 | 0.00 | 86 | 1012.8 |
| 20260507203033 | 60 | 319 | 2.6 | 3.5 | 0.00 | 0.00 | 0.00 | 86 | 1012.7 |
| 20260507202533 | 60 | 305 | 0.0 | 0.9 | 0.00 | 0.00 | 0.00 | 85 | 1012.7 |
| 20260507202030 | 60 | 294 | 0.0 | 1.7 | 0.00 | 0.00 | 0.00 | 85 | 1012.7 |
| 20260507201533 | 61 | 313 | 0.0 | 2.6 | 0.00 | 0.00 | 0.00 | 85 | 1012.6 |
| 20260507201033 | 61 | 284 | 0.0 | 2.6 | 0.00 | 0.00 | 0.00 | 85 | 1012.6 |
| 20260507200536 | 61 | 290 | 0.0 | 2.6 | 0.00 | 0.00 | 0.00 | 85 | 1012.5 |
| 20260507200030 | 61 | 331 | 2.6 | 2.6 | 0.00 | 0.00 | 0.00 | 85 | 1012.4 |
| 20260507195530 | 61 | 320 | 1.7 | 3.5 | 0.00 | 0.00 | 0.00 | 84 | 1012.4 |
| 20260507195030 | 61 | 312 | 0.9 | 3.5 | 0.00 | 0.00 | 0.00 | 84 | 1012.3 |
| 20260507194530 | 62 | 323 | 1.7 | 3.5 | 0.00 | 0.00 | 0.00 | 83 | 1012.3 |
| 20260507194030 | 62 | 327 | 0.9 | 1.7 | 0.00 | 0.00 | 0.00 | 82 | 1012.3 |
| 20260507193530 | 62 | 144 | 0.0 | 0.0 | 0.00 | 0.00 | 0.00 | 82 | 1012.2 |
| 20260507193033 | 63 | 145 | 0.0 | 0.0 | 0.00 | 0.00 | 0.00 | 82 | 1012.3 |
| 20260507192536 | 63 | 145 | 0.0 | 0.0 | 0.00 | 0.00 | 0.00 | 81 | 1012.3 |
| 20260507192030 | 63 | 145 | 0.0 | 0.0 | 0.00 | 0.00 | 0.00 | 81 | 1012.3 |
| 20260507191530 | 63 | 145 | 0.0 | 0.9 | 0.00 | 0.00 | 0.00 | 81 | 1012.3 |
| 20260507191030 | 63 | 207 | 0.0 | 0.9 | 0.00 | 0.00 | 0.00 | 81 | 1012.2 |
| 20260507190530 | 63 | 164 | 0.0 | 0.0 | 0.00 | 0.00 | 0.00 | 80 | 1012.2 |
| 20260507190033 | 63 | 132 | 0.0 | 0.0 | 0.00 | 0.00 | 0.00 | 81 | 1012.2 |
| 20260507185530 | 63 | 132 | 0.0 | 0.9 | 0.00 | 0.00 | 0.00 | 80 | 1012.2 |
| 20260507185033 | 63 | 153 | 0.0 | 1.7 | 0.00 | 0.00 | 0.00 | 80 | 1012.2 |
| 20260507184533 | 63 | 221 | 0.0 | 0.9 | 0.00 | 0.00 | 0.00 | 80 | 1012.2 |
| 20260507184033 | 63 | 106 | 0.0 | 0.0 | 0.00 | 0.00 | 0.00 | 80 | 1012.3 |
| 20260507183530 | 64 | 106 | 0.0 | 0.0 | 0.00 | 0.00 | 0.00 | 80 | 1012.3 |
| 20260507183033 | 64 | 105 | 0.0 | 1.7 | 0.00 | 0.00 | 0.00 | 80 | 1012.3 |
| 20260507182530 | 64 | 109 | 0.0 | 2.6 | 0.00 | 0.00 | 0.00 | 80 | 1012.3 |
| 20260507182036 | 64 | 121 | 0.0 | 1.7 | 0.00 | 0.00 | 0.00 | 79 | 1012.3 |
| 20260507181533 | 64 | 234 | 0.0 | 2.6 | 0.00 | 0.00 | 0.00 | 79 | 1012.2 |
| 20260507181030 | 64 | 227 | 0.0 | 1.7 | 0.00 | 0.00 | 0.00 | 78 | 1012.1 |
| 20260507180530 | 65 | 121 | 0.0 | 2.6 | 0.00 | 0.00 | 0.00 | 77 | 1012.2 |
| 20260507180033 | 65 | 161 | 3.5 | 3.5 | 0.00 | 0.00 | 0.00 | 77 | 1012.3 |
| 20260507175530 | 65 | 230 | 0.0 | 1.7 | 0.00 | 0.00 | 0.00 | 76 | 1012.3 |
| 20260507175033 | 66 | 202 | 0.0 | 3.5 | 0.00 | 0.00 | 0.00 | 75 | 1012.2 |
| 20260507174536 | 66 | 118 | 0.0 | 3.5 | 0.00 | 0.00 | 0.00 | 75 | 1012.2 |
| 20260507174033 | 66 | 240 | 0.0 | 2.6 | 0.00 | 0.00 | 0.00 | 76 | 1012.2 |
| 20260507173533 | 66 | 241 | 0.0 | 5.2 | 0.00 | 0.00 | 0.00 | 74 | 1012.2 |
| 20260507173030 | 67 | 232 | 0.0 | 2.6 | 0.00 | 0.00 | 0.00 | 74 | 1012.2 |
| 20260507172533 | 67 | 139 | 0.0 | 2.6 | 0.00 | 0.00 | 0.00 | 73 | 1012.3 |
| 20260507172030 | 67 | 129 | 1.7 | 1.7 | 0.00 | 0.00 | 0.00 | 74 | 1012.3 |
| 20260507171533 | 67 | 146 | 0.0 | 4.3 | 0.00 | 0.00 | 0.00 | 75 | 1012.3 |
| 20260507171030 | 67 | 217 | 2.6 | 6.1 | 0.00 | 0.00 | 0.00 | 74 | 1012.3 |
| 20260507170530 | 68 | 132 | 1.7 | 6.1 | 0.00 | 0.00 | 0.00 | 74 | 1012.2 |
| 20260507170033 | 68 | 223 | 2.6 | 6.1 | 0.00 | 0.00 | 0.00 | 73 | 1012.1 |
| 20260507165530 | 68 | 216 | 0.9 | 7.0 | 0.00 | 0.00 | 0.00 | 73 | 1012.1 |
| 20260507165030 | 69 | 116 | 3.5 | 3.5 | 0.00 | 0.00 | 0.00 | 72 | 1012.1 |
| 20260507164530 | 68 | 302 | 0.0 | 2.6 | 0.00 | 0.00 | 0.00 | 72 | 1012.1 |
| 20260507164030 | 68 | 103 | 0.0 | 4.3 | 0.00 | 0.00 | 0.00 | 73 | 1012.1 |
| 20260507163536 | 68 | 134 | 0.9 | 4.3 | 0.00 | 0.00 | 0.00 | 72 | 1012.1 |
| 20260507163030 | 68 | 208 | 0.0 | 4.3 | 0.00 | 0.00 | 0.00 | 73 | 1012.2 |
| 20260507162530 | 68 | 142 | 1.7 | 5.2 | 0.00 | 0.00 | 0.00 | 73 | 1012.1 |
| 20260507162036 | 68 | 121 | 0.9 | 5.2 | 0.00 | 0.00 | 0.00 | 72 | 1012.1 |
| 20260507161540 | 69 | 144 | 1.7 | 3.5 | 0.00 | 0.00 | 0.00 | 72 | 1012.1 |
| 20260507161033 | 68 | 148 | 0.9 | 7.8 | 0.00 | 0.00 | 0.00 | 72 | 1012.1 |
| 20260507160533 | 69 | 178 | 0.0 | 5.2 | 0.00 | 0.00 | 0.00 | 72 | 1012.1 |
| 20260507160030 | 69 | 133 | 1.7 | 3.5 | 0.00 | 0.00 | 0.00 | 73 | 1012.1 |
| 20260507155536 | 69 | 130 | 3.5 | 7.0 | 0.00 | 0.00 | 0.00 | 72 | 1012.1 |
| 20260507155039 | 69 | 230 | 0.9 | 7.0 | 0.00 | 0.00 | 0.00 | 72 | 1012.1 |
| 20260507154536 | 69 | 150 | 1.7 | 9.6 | 0.00 | 0.00 | 0.00 | 72 | 1012.1 |
| 20260507154030 | 69 | 242 | 0.9 | 4.3 | 0.00 | 0.00 | 0.00 | 72 | 1012.2 |
| 20260507153530 | 69 | 103 | 0.9 | 7.8 | 0.00 | 0.00 | 0.00 | 72 | 1012.2 |
| 20260507153033 | 68 | 168 | 0.9 | 8.7 | 0.00 | 0.00 | 0.00 | 71 | 1012.2 |
| 20260507152530 | 69 | 126 | 1.7 | 5.2 | 0.00 | 0.00 | 0.00 | 73 | 1012.1 |
| 20260507152033 | 69 | 197 | 0.0 | 6.1 | 0.00 | 0.00 | 0.00 | 73 | 1012.2 |
| 20260507151530 | 68 | 144 | 2.6 | 7.0 | 0.00 | 0.00 | 0.00 | 73 | 1012.2 |
| 20260507151030 | 68 | 154 | 3.5 | 7.8 | 0.00 | 0.00 | 0.00 | 74 | 1012.3 |
| 20260507150530 | 68 | 180 | 4.3 | 7.8 | 0.00 | 0.00 | 0.00 | 73 | 1012.3 |
| 20260507150030 | 68 | 129 | 0.9 | 5.2 | 0.00 | 0.00 | 0.00 | 73 | 1012.2 |
| 20260507145530 | 68 | 243 | 5.2 | 7.0 | 0.00 | 0.00 | 0.00 | 72 | 1012.2 |
| 20260507145030 | 68 | 277 | 0.9 | 6.1 | 0.00 | 0.00 | 0.00 | 72 | 1012.2 |
| 20260507144530 | 68 | 119 | 2.6 | 8.7 | 0.00 | 0.00 | 0.00 | 73 | 1012.2 |
| 20260507144033 | 67 | 146 | 0.9 | 8.7 | 0.00 | 0.00 | 0.00 | 74 | 1012.2 |
| 20260507143536 | 67 | 130 | 7.0 | 8.7 | 0.00 | 0.00 | 0.00 | 73 | 1012.3 |
| 20260507143033 | 68 | 119 | 7.0 | 8.7 | 0.00 | 0.00 | 0.00 | 73 | 1012.3 |
| 20260507142533 | 69 | 110 | 0.9 | 9.6 | 0.00 | 0.00 | 0.00 | 71 | 1012.3 |
| 20260507142030 | 69 | 150 | 0.9 | 7.8 | 0.00 | 0.00 | 0.00 | 71 | 1012.5 |
| 20260507141533 | 69 | 86 | 3.5 | 10.4 | 0.00 | 0.00 | 0.00 | 72 | 1012.5 |
| 20260507141033 | 69 | 137 | 2.6 | 9.6 | 0.00 | 0.00 | 0.00 | 71 | 1012.5 |
| 20260507140536 | 69 | 284 | 2.6 | 9.6 | 0.00 | 0.00 | 0.00 | 70 | 1012.5 |
| 20260507140030 | 68 | 84 | 2.6 | 7.8 | 0.00 | 0.00 | 0.00 | 73 | 1012.5 |
| 20260507135530 | 68 | 158 | 2.6 | 11.3 | 0.00 | 0.00 | 0.00 | 74 | 1012.5 |
| 20260507135033 | 68 | 178 | 2.6 | 9.6 | 0.00 | 0.00 | 0.00 | 73 | 1012.5 |
| 20260507134533 | 69 | 120 | 3.5 | 9.6 | 0.00 | 0.00 | 0.00 | 74 | 1012.5 |
| 20260507134033 | 68 | 105 | 1.7 | 8.7 | 0.00 | 0.00 | 0.00 | 73 | 1012.5 |
| 20260507133530 | 69 | 138 | 4.3 | 11.3 | 0.00 | 0.00 | 0.00 | 72 | 1012.5 |
| 20260507133036 | 69 | 275 | 0.9 | 10.4 | 0.00 | 0.00 | 0.00 | 74 | 1012.5 |
| 20260507132530 | 68 | 347 | 0.0 | 9.6 | 0.00 | 0.00 | 0.00 | 73 | 1012.4 |
| 20260507132030 | 68 | 116 | 5.2 | 9.6 | 0.00 | 0.00 | 0.00 | 73 | 1012.4 |
| 20260507131533 | 68 | 125 | 1.7 | 10.4 | 0.00 | 0.00 | 0.00 | 72 | 1012.6 |
| 20260507131033 | 69 | 132 | 8.7 | 7.8 | 0.00 | 0.00 | 0.00 | 72 | 1012.4 |
| 20260507130533 | 69 | 103 | 7.8 | 6.1 | 0.00 | 0.00 | 0.00 | 73 | 1012.6 |
| 20260507130039 | 69 | 236 | 3.5 | 8.7 | 0.00 | 0.00 | 0.00 | 73 | 1012.5 |
| 20260507125530 | 68 | 236 | 1.7 | 7.0 | 0.00 | 0.00 | 0.00 | 74 | 1012.5 |
| 20260507125033 | 68 | 164 | 9.6 | 9.6 | 0.00 | 0.00 | 0.00 | 75 | 1012.5 |
| 20260507124533 | 68 | 137 | 7.0 | 9.6 | 0.00 | 0.00 | 0.00 | 74 | 1012.5 |
| 20260507124033 | 68 | 243 | 0.0 | 12.2 | 0.00 | 0.00 | 0.00 | 75 | 1012.4 |
| 20260507123530 | 68 | 216 | 2.6 | 11.3 | 0.00 | 0.00 | 0.00 | 73 | 1012.4 |
| 20260507123030 | 68 | 146 | 5.2 | 11.3 | 0.00 | 0.00 | 0.00 | 73 | 1012.3 |
| 20260507122530 | 68 | 239 | 4.3 | 7.8 | 0.00 | 0.00 | 0.00 | 73 | 1012.3 |
| 20260507122030 | 68 | 200 | 3.5 | 7.0 | 0.00 | 0.00 | 0.00 | 74 | 1012.3 |
| 20260507121530 | 68 | 302 | 0.0 | 10.4 | 0.00 | 0.00 | 0.00 | 75 | 1012.2 |
| 20260507121033 | 68 | 157 | 6.1 | 7.0 | 0.00 | 0.00 | 0.00 | 74 | 1012.3 |
| 20260507120530 | 68 | 56 | 0.9 | 7.0 | 0.00 | 0.00 | 0.00 | 73 | 1012.3 |
| 20260507120035 | 68 | 131 | 6.1 | 8.7 | 0.00 | 0.00 | 0.00 | 73 | 1012.3 |
| 20260507115530 | 68 | 136 | 3.5 | 9.6 | 0.00 | 0.00 | 0.00 | 73 | 1012.4 |
| 20260507115030 | 69 | 106 | 0.0 | 9.6 | 0.00 | 0.00 | 0.00 | 76 | 1012.2 |
| 20260507114539 | 68 | 209 | 3.5 | 10.4 | 0.00 | 0.00 | 0.00 | 75 | 1012.3 |
| 20260507114030 | 68 | 91 | 5.2 | 7.8 | 0.00 | 0.00 | 0.00 | 73 | 1012.5 |
| 20260507113539 | 68 | 153 | 2.6 | 7.0 | 0.00 | 0.00 | 0.00 | 72 | 1012.6 |
| 20260507113036 | 69 | 96 | 2.6 | 7.8 | 0.00 | 0.00 | 0.00 | 72 | 1012.6 |
| 20260507112533 | 68 | 212 | 0.0 | 7.8 | 0.00 | 0.00 | 0.00 | 72 | 1012.6 |
| 20260507112030 | 69 | 129 | 1.7 | 7.0 | 0.00 | 0.00 | 0.00 | 71 | 1012.6 |
| 20260507111533 | 69 | 138 | 1.7 | 8.7 | 0.00 | 0.00 | 0.00 | 70 | 1012.6 |
| 20260507111033 | 69 | 65 | 2.6 | 8.7 | 0.00 | 0.00 | 0.00 | 71 | 1012.7 |
| 20260507110536 | 68 | 302 | 0.0 | 6.1 | 0.00 | 0.00 | 0.00 | 71 | 1012.6 |
| 20260507110033 | 68 | 152 | 2.6 | 6.1 | 0.00 | 0.00 | 0.00 | 73 | 1012.6 |
| 20260507105530 | 68 | 274 | 1.7 | 8.7 | 0.00 | 0.00 | 0.00 | 74 | 1012.5 |
| 20260507105030 | 68 | 151 | 1.7 | 6.1 | 0.00 | 0.00 | 0.00 | 75 | 1012.4 |
| 20260507104530 | 67 | 312 | 0.9 | 7.8 | 0.00 | 0.00 | 0.00 | 75 | 1012.5 |
| 20260507104033 | 67 | 140 | 0.9 | 6.1 | 0.00 | 0.00 | 0.00 | 76 | 1012.5 |
| 20260507103530 | 66 | 126 | 6.1 | 11.3 | 0.00 | 0.00 | 0.00 | 78 | 1012.5 |
| 20260507103030 | 67 | 74 | 0.9 | 9.6 | 0.00 | 0.00 | 0.00 | 76 | 1012.5 |
| 20260507102530 | 66 | 95 | 9.6 | 11.3 | 0.00 | 0.00 | 0.00 | 76 | 1012.6 |
| 20260507102033 | 66 | 264 | 0.9 | 11.3 | 0.00 | 0.00 | 0.00 | 77 | 1012.5 |
| 20260507101530 | 65 | 142 | 1.7 | 10.4 | 0.00 | 0.00 | 0.00 | 79 | 1012.4 |
| 20260507101033 | 65 | 145 | 7.0 | 11.3 | 0.00 | 0.00 | 0.00 | 81 | 1012.5 |
| 20260507100533 | 64 | 153 | 4.3 | 13.0 | 0.00 | 0.00 | 0.00 | 81 | 1012.5 |
| 20260507100036 | 65 | 152 | 8.7 | 10.4 | 0.00 | 0.00 | 0.00 | 80 | 1012.5 |
| 20260507095533 | 65 | 139 | 3.5 | 8.7 | 0.00 | 0.00 | 0.00 | 79 | 1012.4 |
| 20260507095036 | 65 | 135 | 7.8 | 13.9 | 0.00 | 0.00 | 0.00 | 78 | 1012.5 |
| 20260507094530 | 66 | 128 | 11.3 | 12.2 | 0.00 | 0.00 | 0.00 | 77 | 1012.5 |
| 20260507094030 | 66 | 130 | 1.7 | 8.7 | 0.00 | 0.00 | 0.00 | 78 | 1012.5 |
| 20260507093533 | 67 | 138 | 2.6 | 12.2 | 0.00 | 0.00 | 0.00 | 77 | 1012.5 |
| 20260507093039 | 67 | 135 | 7.8 | 12.2 | 0.00 | 0.00 | 0.00 | 76 | 1012.5 |
| 20260507092533 | 67 | 286 | 0.9 | 13.0 | 0.00 | 0.00 | 0.00 | 78 | 1012.4 |
| 20260507092033 | 66 | 169 | 9.6 | 11.3 | 0.00 | 0.00 | 0.00 | 77 | 1012.4 |
| 20260507091533 | 66 | 138 | 7.8 | 13.0 | 0.00 | 0.00 | 0.00 | 75 | 1012.4 |
| 20260507091030 | 67 | 88 | 0.9 | 12.2 | 0.00 | 0.00 | 0.00 | 75 | 1012.3 |
| 20260507090533 | 67 | 105 | 9.6 | 10.4 | 0.00 | 0.00 | 0.00 | 75 | 1012.3 |
| 20260507090033 | 67 | 219 | 0.9 | 13.9 | 0.00 | 0.00 | 0.00 | 75 | 1012.3 |
| 20260507085530 | 67 | 141 | 3.5 | 12.2 | 0.00 | 0.00 | 0.00 | 75 | 1012.3 |
| 20260507085039 | 66 | 107 | 0.9 | 16.5 | 0.00 | 0.00 | 0.00 | 75 | 1012.3 |
| 20260507084530 | 66 | 145 | 4.3 | 8.7 | 0.00 | 0.00 | 0.00 | 76 | 1012.2 |
| 20260507084030 | 66 | 140 | 2.6 | 11.3 | 0.00 | 0.00 | 0.00 | 76 | 1012.1 |
| 20260507083533 | 67 | 116 | 5.2 | 10.4 | 0.00 | 0.00 | 0.00 | 75 | 1012.1 |
| 20260507083030 | 67 | 98 | 1.7 | 8.7 | 0.00 | 0.00 | 0.00 | 75 | 1012.1 |
| 20260507082530 | 66 | 130 | 1.7 | 6.1 | 0.00 | 0.00 | 0.00 | 77 | 1012.1 |
| 20260507082030 | 64 | 260 | 0.0 | 10.4 | 0.00 | 0.00 | 0.00 | 78 | 1012.1 |
| 20260507081536 | 64 | 117 | 6.1 | 9.6 | 0.00 | 0.00 | 0.00 | 79 | 1011.9 |
| 20260507081030 | 64 | 138 | 4.3 | 13.0 | 0.00 | 0.00 | 0.00 | 78 | 1011.9 |
| 20260507080530 | 64 | 144 | 1.7 | 9.6 | 0.00 | 0.00 | 0.00 | 78 | 1011.8 |
| 20260507080035 | 64 | 90 | 1.7 | 9.6 | 0.00 | 0.00 | 0.00 | 78 | 1011.8 |
| 20260507075530 | 63 | 355 | 2.6 | 8.7 | 0.00 | 0.00 | 0.00 | 78 | 1011.9 |
| 20260507075030 | 63 | 114 | 2.6 | 11.3 | 0.00 | 0.00 | 0.00 | 78 | 1011.7 |
| 20260507074533 | 64 | 113 | 12.2 | 12.2 | 0.00 | 0.00 | 0.00 | 77 | 1011.6 |
| 20260507074033 | 64 | 123 | 2.6 | 9.6 | 0.00 | 0.00 | 0.00 | 76 | 1011.6 |
| 20260507073530 | 64 | 136 | 3.5 | 10.4 | 0.00 | 0.00 | 0.00 | 75 | 1011.5 |
| 20260507073039 | 64 | 227 | 3.5 | 11.3 | 0.00 | 0.00 | 0.00 | 76 | 1011.5 |
| 20260507072530 | 64 | 102 | 5.2 | 7.0 | 0.00 | 0.00 | 0.00 | 75 | 1011.4 |
| 20260507072036 | 64 | 142 | 4.3 | 8.7 | 0.00 | 0.00 | 0.00 | 75 | 1011.4 |
| 20260507071530 | 64 | 244 | 0.9 | 11.3 | 0.00 | 0.00 | 0.00 | 74 | 1011.4 |
| 20260507071030 | 64 | 79 | 0.9 | 8.7 | 0.00 | 0.00 | 0.00 | 75 | 1011.4 |
| 20260507070539 | 64 | 128 | 1.7 | 9.6 | 0.00 | 0.00 | 0.00 | 74 | 1011.4 |
| 20260507070030 | 64 | 84 | 6.1 | 13.9 | 0.00 | 0.00 | 0.00 | 74 | 1011.3 |
| 20260507065530 | 64 | 121 | 0.0 | 8.7 | 0.00 | 0.00 | 0.00 | 74 | 1011.3 |
| 20260507065030 | 64 | 121 | 2.6 | 8.7 | 0.00 | 0.01 | 0.00 | 75 | 1011.3 |
| 20260507064530 | 64 | 125 | 6.1 | 7.8 | 0.00 | 0.03 | 0.00 | 75 | 1011.3 |
| 20260507064033 | 64 | 96 | 0.9 | 7.0 | 0.00 | 0.03 | 0.00 | 75 | 1011.3 |
| 20260507063530 | 64 | 129 | 4.3 | 7.8 | 0.00 | 0.03 | 0.00 | 76 | 1011.3 |
| 20260507063030 | 64 | 236 | 2.6 | 5.2 | 0.00 | 0.03 | 0.00 | 76 | 1011.2 |
| 20260507062533 | 64 | 117 | 5.2 | 8.7 | 0.00 | 0.04 | 0.00 | 75 | 1011.3 |
| 20260507062033 | 64 | 104 | 0.0 | 9.6 | 0.00 | 0.04 | 0.00 | 75 | 1011.2 |
| 20260507061533 | 64 | 116 | 0.9 | 7.8 | 0.00 | 0.04 | 0.00 | 75 | 1011.2 |
| 20260507061030 | 64 | 112 | 0.0 | 7.0 | 0.00 | 0.04 | 0.00 | 75 | 1011.2 |
| 20260507060530 | 64 | 80 | 0.0 | 4.3 | 0.00 | 0.04 | 0.00 | 76 | 1011.1 |
| 20260507060030 | 64 | 86 | 0.0 | 5.2 | 0.00 | 0.04 | 0.00 | 77 | 1011.0 |
| 20260507055536 | 63 | 55 | 1.7 | 7.8 | 0.00 | 0.04 | 0.00 | 77 | 1011.0 |
| 20260507055036 | 63 | 111 | 1.7 | 1.7 | 0.00 | 0.04 | 0.00 | 79 | 1011.1 |
| 20260507054530 | 62 | 131 | 0.0 | 3.5 | 0.00 | 0.04 | 0.00 | 79 | 1011.1 |
| 20260507054039 | 62 | 92 | 0.0 | 2.6 | 0.00 | 0.04 | 0.00 | 79 | 1011.0 |
| 20260507053533 | 62 | 123 | 0.9 | 5.2 | 0.00 | 0.04 | 0.00 | 79 | 1011.0 |
| 20260507053030 | 62 | 133 | 0.9 | 2.6 | 0.00 | 0.05 | 0.00 | 79 | 1010.9 |
| 20260507052533 | 62 | 127 | 0.0 | 2.6 | 0.00 | 0.05 | 0.00 | 80 | 1011.0 |
| 20260507052036 | 62 | 146 | 0.0 | 6.1 | 0.00 | 0.05 | 0.00 | 80 | 1011.0 |
| 20260507051530 | 61 | 108 | 0.0 | 5.2 | 0.00 | 0.05 | 0.00 | 80 | 1010.8 |
| 20260507051036 | 61 | 111 | 0.0 | 3.5 | 0.00 | 0.05 | 0.00 | 80 | 1010.8 |
| 20260507050533 | 61 | 132 | 0.9 | 5.2 | 0.00 | 0.05 | 0.00 | 81 | 1010.6 |
| 20260507050033 | 61 | 106 | 0.9 | 2.6 | 0.00 | 0.05 | 0.00 | 81 | 1010.5 |
| 20260507045533 | 61 | 69 | 2.6 | 5.2 | 0.00 | 0.05 | 0.00 | 81 | 1010.4 |
| 20260507045030 | 61 | 111 | 0.0 | 7.0 | 0.00 | 0.05 | 0.00 | 81 | 1010.4 |
| 20260507044530 | 61 | 114 | 2.6 | 5.2 | 0.00 | 0.05 | 0.00 | 81 | 1010.4 |
| 20260507044030 | 61 | 96 | 1.7 | 7.8 | 0.00 | 0.05 | 0.00 | 81 | 1010.4 |
| 20260507043530 | 61 | 115 | 0.0 | 5.2 | 0.00 | 0.05 | 0.00 | 81 | 1010.4 |
| 20260507043033 | 61 | 131 | 0.9 | 6.1 | 0.00 | 0.05 | 0.00 | 81 | 1010.3 |
| 20260507042530 | 61 | 80 | 1.7 | 6.1 | 0.00 | 0.05 | 0.00 | 81 | 1010.4 |
| 20260507042033 | 61 | 126 | 0.0 | 6.1 | 0.00 | 0.05 | 0.00 | 81 | 1010.3 |
| 20260507041539 | 61 | 119 | 0.9 | 3.5 | 0.00 | 0.05 | 0.00 | 82 | 1010.2 |
| 20260507041030 | 61 | 119 | 0.0 | 3.5 | 0.00 | 0.07 | 0.00 | 82 | 1010.2 |
| 20260507040536 | 61 | 109 | 0.9 | 4.3 | 0.00 | 0.07 | 0.00 | 82 | 1010.2 |
| 20260507040030 | 61 | 125 | 0.0 | 9.6 | 0.00 | 0.08 | 0.00 | 82 | 1010.3 |
| 20260507035530 | 61 | 136 | 0.9 | 7.8 | 0.00 | 0.09 | 0.00 | 81 | 1010.2 |
| 20260507035033 | 61 | 110 | 0.9 | 6.1 | 0.00 | 0.09 | 0.00 | 81 | 1010.2 |
| 20260507034533 | 61 | 125 | 0.0 | 3.5 | 0.00 | 0.10 | 0.00 | 81 | 1010.2 |
| 20260507034030 | 61 | 88 | 0.0 | 3.5 | 0.00 | 0.10 | 0.00 | 81 | 1010.3 |
| 20260507033533 | 61 | 139 | 0.0 | 4.3 | 0.00 | 0.10 | 0.00 | 81 | 1010.2 |
| 20260507033030 | 61 | 134 | 0.0 | 6.1 | 0.00 | 0.10 | 0.00 | 81 | 1010.2 |
| 20260507032539 | 61 | 128 | 0.9 | 6.1 | 0.00 | 0.10 | 0.00 | 81 | 1010.2 |
| 20260507032030 | 61 | 151 | 3.5 | 5.2 | 0.00 | 0.10 | 0.00 | 81 | 1010.1 |
| 20260507031530 | 61 | 96 | 0.9 | 8.7 | 0.00 | 0.10 | 0.00 | 81 | 1010.1 |
| 20260507031030 | 61 | 101 | 3.5 | 5.2 | 0.00 | 0.10 | 0.00 | 81 | 1010.2 |
| 20260507030530 | 61 | 113 | 1.7 | 6.1 | 0.00 | 0.10 | 0.00 | 81 | 1010.2 |
| 20260507030030 | 62 | 72 | 0.0 | 8.7 | 0.00 | 0.10 | 0.00 | 81 | 1010.2 |
| 20260507025536 | 62 | 155 | 6.1 | 7.8 | 0.00 | 0.10 | 0.00 | 81 | 1010.1 |
| 20260507025030 | 62 | 135 | 2.6 | 8.7 | 0.00 | 0.10 | 0.00 | 81 | 1010.1 |
| 20260507024530 | 62 | 68 | 1.7 | 3.5 | 0.00 | 0.10 | 0.00 | 81 | 1010.1 |
| 20260507024030 | 62 | 132 | 2.6 | 3.5 | 0.00 | 0.11 | 0.00 | 81 | 1010.1 |
| 20260507023533 | 62 | 126 | 0.0 | 5.2 | 0.00 | 0.11 | 0.00 | 81 | 1010.1 |
| 20260507023030 | 62 | 117 | 0.0 | 3.5 | 0.00 | 0.11 | 0.00 | 81 | 1010.1 |
| 20260507022533 | 62 | 184 | 3.5 | 5.2 | 0.00 | 0.11 | 0.00 | 81 | 1010.1 |
| 20260507022033 | 62 | 129 | 2.6 | 6.1 | 0.00 | 0.11 | 0.00 | 81 | 1010.2 |
| 20260507021539 | 62 | 105 | 0.9 | 4.3 | 0.00 | 0.12 | 0.00 | 81 | 1010.2 |
| 20260507021036 | 62 | 147 | 0.9 | 6.1 | 0.00 | 0.13 | 0.00 | 81 | 1010.1 |
| 20260507020533 | 62 | 138 | 0.9 | 8.7 | 0.00 | 0.13 | 0.00 | 81 | 1010.1 |
| 20260507020036 | 62 | 115 | 0.9 | 8.7 | 0.00 | 0.28 | 0.00 | 79 | 1010.2 |
| 20260507015533 | 62 | 144 | 2.6 | 8.7 | 0.00 | 0.29 | 0.00 | 79 | 1010.1 |
| 20260507015030 | 62 | 146 | 0.9 | 5.2 | 0.00 | 0.32 | 0.00 | 79 | 1010.1 |
| 20260507014530 | 62 | 131 | 0.9 | 7.0 | 0.00 | 0.36 | 0.00 | 79 | 1010.1 |
| 20260507014033 | 62 | 133 | 1.7 | 5.2 | 0.00 | 0.38 | 0.00 | 78 | 1010.0 |
| 20260507013530 | 62 | 91 | 3.5 | 7.8 | 0.00 | 0.40 | 0.00 | 78 | 1010.1 |
| 20260507013036 | 62 | 148 | 1.7 | 6.1 | 0.00 | 0.46 | 0.00 | 78 | 1010.1 |
| 20260507012530 | 62 | 152 | 2.6 | 6.1 | 0.00 | 0.51 | 0.00 | 78 | 1010.2 |
| 20260507012033 | 62 | 149 | 1.7 | 6.1 | 0.00 | 0.55 | 0.00 | 78 | 1010.2 |
| 20260507011530 | 62 | 139 | 3.5 | 7.0 | 0.00 | 0.57 | 0.00 | 78 | 1010.2 |
| 20260507011036 | 62 | 144 | 4.3 | 6.1 | 0.00 | 0.64 | 0.00 | 78 | 1010.3 |
| 20260507010533 | 62 | 182 | 0.9 | 5.2 | 0.00 | 0.66 | 0.00 | 78 | 1010.2 |
| 20260507010039 | 62 | 157 | 4.3 | 7.8 | 0.00 | 0.67 | 0.00 | 78 | 1010.3 |
| 20260507005530 | 62 | 135 | 2.6 | 5.2 | 0.00 | 0.67 | 0.00 | 78 | 1010.3 |
| 20260507005030 | 62 | 160 | 0.9 | 4.3 | 0.00 | 0.68 | 0.00 | 78 | 1010.5 |
| 20260507004530 | 62 | 156 | 0.9 | 7.0 | 0.00 | 0.69 | 0.00 | 78 | 1010.5 |
| 20260507004033 | 62 | 184 | 3.5 | 7.0 | 0.00 | 0.69 | 0.00 | 78 | 1010.4 |
| 20260507003533 | 62 | 143 | 0.9 | 7.8 | 0.00 | 0.69 | 0.00 | 78 | 1010.3 |
| 20260507003030 | 62 | 175 | 3.5 | 7.8 | 0.00 | 0.69 | 0.00 | 78 | 1010.3 |
| 20260507002533 | 62 | 102 | 0.0 | 8.7 | 0.00 | 0.69 | 0.00 | 78 | 1010.2 |
| 20260507002030 | 62 | 37 | 0.9 | 5.2 | 0.00 | 0.69 | 0.00 | 78 | 1010.3 |
| 20260507001539 | 62 | 138 | 1.7 | 7.8 | 0.00 | 0.70 | 0.00 | 78 | 1010.2 |
| 20260507001033 | 62 | 234 | 1.7 | 8.7 | 0.00 | 0.70 | 0.00 | 78 | 1010.1 |
| 20260507000533 | 62 | 151 | 1.7 | 7.0 | 0.00 | 0.70 | 0.00 | 77 | 1010.2 |
| 20260507000039 | 62 | 140 | 2.6 | 7.0 | 0.00 | 0.70 | 0.00 | 77 | 1010.2 |
| 20260506235533 | 62 | 150 | 0.0 | 4.3 | 0.00 | 0.70 | 0.00 | 77 | 1010.3 |
| 20260506235036 | 62 | 130 | 1.7 | 4.3 | 0.00 | 0.70 | 0.00 | 77 | 1010.3 |
| 20260506234530 | 62 | 147 | 2.6 | 7.8 | 0.00 | 0.70 | 0.00 | 77 | 1010.4 |
| 20260506234030 | 63 | 121 | 3.5 | 7.8 | 0.00 | 0.70 | 0.00 | 76 | 1010.5 |
| 20260506233539 | 63 | 130 | 3.5 | 7.8 | 0.00 | 0.70 | 0.00 | 76 | 1010.4 |
| 20260506233033 | 63 | 134 | 1.7 | 7.0 | 0.00 | 0.70 | 0.00 | 76 | 1010.4 |
| 20260506232530 | 63 | 69 | 1.7 | 7.8 | 0.00 | 0.70 | 0.00 | 75 | 1010.3 |
| 20260506232030 | 63 | 157 | 1.7 | 6.1 | 0.00 | 0.70 | 0.00 | 75 | 1010.4 |
| 20260506231530 | 63 | 93 | 0.9 | 7.8 | 0.00 | 0.70 | 0.00 | 75 | 1010.4 |
| 20260506231030 | 63 | 131 | 0.9 | 5.2 | 0.00 | 0.70 | 0.00 | 75 | 1010.5 |
| 20260506230530 | 63 | 141 | 0.9 | 7.0 | 0.00 | 0.70 | 0.00 | 75 | 1010.5 |